105  
ASUS45 KBOU 270607  
RWRCO  
 
WEATHER ROUNDUP FOR COLORADO  
NATIONAL WEATHER SERVICE DENVER/BOULDER CO  
1200 AM MDT THU APR 27 2017  
 
NOTE: "FAIR" INDICATES FEW OR NO CLOUDS BELOW 12000 FEET WITH NO  
SIGNIFICANT WEATHER AND/OR S TO VISIBILITY
.  
 
COZ001>005-013-030-031-270700-   
..NORTHWEST COLORADO
 
 
 
CITY SKY/WX TMP DP RH WIND PRES REMARKS
 
CRAIG LGT RAIN 43 31 62 W12G22 29.71F  
HAYDEN CLOUDY 39 32 75 E6 29.71F  
MEEKER LGT RAIN 43 35 73 NW6 29.73S  
MOUNT WERNER NOT AVBL  
STEAMBOAT SPGS CLOUDY 35 33 93 E8 29.72F WCI 29  
WALDEN N/A 32 30 93 S10 29.73F WCI 24  

 
 
COZ006>008-011-270700-   
..WEST CENTRAL VALLEYS
 
 
 
CITY SKY/WX TMP DP RH WIND PRES REMARKS
 
GRAND JUNCTION CLOUDY 51 33 50 S7 29.74R  
MONTROSE CLOUDY 46 32 58 E3 29.75F  
EAGLE MOCLDY 39 30 70 SE6 29.75F  
RIFLE LGT RAIN 46 35 65 W9 29.72F  
DELTA CLOUDY 49 34 55 N12 29.75S  
NUCLA NOT AVBL  

 
 
COZ017>023-064>068-270700-   
..SOUTHWEST COLORADO
 
 
 
CITY SKY/WX TMP DP RH WIND PRES REMARKS
 
DURANGO CLOUDY 43 26 51 CALM 29.78F  
CORTEZ CLOUDY 47 34 60 W5 29.78R  
PAGOSA SPRINGS CLOUDY 41 28 60 SE5 29.83F  
TELLURIDE CLOUDY 37 24 59 E5 29.84F  
WOLF CREEK PAS FLURRIES 21 21 100 S17G29 29.94S WCI 7  

 
 
COZ009-010-012-014-032>034-037-058>063-270700-   
..CENTRAL COLORADO
 
 
 
CITY SKY/WX TMP DP RH WIND PRES REMARKS
 
ASPEN FAIR 33 29 85 S5 29.74F WCI 29  
BUENA VISTA NOT AVBL  
COPPER MTN MOCLDY 25 18 74 MISG 29.81F  
BERTHOUD PASS FAIR 18 5 57 W24G31 29.79F WCI 0  
COTTONWOOD PAS FAIR 34 21 60 W8G16 29.79F WCI 27  
GUNNISON FAIR 38 27 64 SW6 29.80F  
KREMMLING FAIR 37 34 87 CALM 29.74F  
LEADVILLE MOCLDY 28 20 71 NE5 29.77F WCI 23  
MONARCH PASS LGT SNOW 21 19 93 W32G40 29.94F WCI 2  
SALIDA FAIR 44 21 40 SW9G17 29.83S  
SUNLIGHT LGT SNOW 25 21 86 SW12G21 29.84F WCI 14  
WILKERSON PASS MOCLDY 27 18 69 SW7 29.83F WCI 19  

 
 
COZ069>075-270700-   
..SAN LUIS VALLEY/SANGRE DE CRISTO MOUNTAINS
 
 
 
CITY SKY/WX TMP DP RH WIND PRES REMARKS
 
ALAMOSA MOCLDY 39 32 76 SE7 29.78F  
LA VETA PASS MOCLDY 30 21 69 SW20G32 29.93F WCI 18  
SAGUACHE MOCLDY 37 21 52 N6 29.79F  

 
 
COZ035-036-038>040-270700-   
..NORTHERN COLORADO FRONT RANGE
 
 
 
CITY SKY/WX TMP DP RH WIND PRES REMARKS
 
DENVER INTL AP MOCLDY 38 31 76 CALM 29.68F  
DMNS CITY PARK N/A 45 34 64 E9 29.67F  
AURORA MOCLDY 41 33 73 S8 29.69F  
FRONT RANGE AP MOCLDY 41 34 75 S5 29.69F  
ERIE MUNI ARPT FAIR 46 34 61 CALM 29.68F  
BOULDER MUN AP CLOUDY 46 32 57 N5 29.68F  
CENTENNIAL FAIR 42 34 73 S8 29.69F  
BROOMFIELD FAIR 46 32 57 SE5 29.69F  
FORT COLLINS FAIR 43 36 76 CALM 29.70F  
LONGMONT CLOUDY 47 37 67 N3 29.71S  

 
 
COZ041-046-047-076>085-087-088-270700-   
..PIKES PEAK/PALMER DIVIDE AND SOUTHERN FOOTHILLS
 
 
 
CITY SKY/WX TMP DP RH WIND PRES REMARKS
 
COLO. SPRINGS MOCLDY 42 34 73 SE5 29.74F  
A. F. ACADEMY FAIR 35 31 88 CALM 29.73F  
SCHRIEVER AFB FAIR 39 34 82 CALM 29.74F  
ELLICOTT FAIR N/A N/A N/A SE5 29.72F  
FALCON NOT AVBL  
FORT CARSON FAIR 44 32 62 SW6 29.73F  
LIMON FAIR 37 34 89 SE6 29.72F  
MONUMENT HILL FAIR 32 32 100 S9 29.74F WCI 24  
TRINIDAD FAIR 42 37 82 W3 29.72F  

 
 
COZ042>045-048>051-090-091-270700-   
..NORTHEAST COLORADO
 
 
 
CITY SKY/WX TMP DP RH WIND PRES REMARKS
 
GREELEY ARPT FAIR 45 37 73 SE8 29.70F  
AKRON LGT RAIN 42 37 82 N8 29.72S  
BURLINGTON NOT AVBL  
WRAY NOT AVBL  
STERLING MOCLDY 41 41 100 CALM 29.69F  
HOLYOKE FAIR 43 34 70 SE5 29.71S  
FORT MORGAN NOT AVBL  

 
 
COZ086-089-092>099-270700-   
..SOUTHEAST COLORADO
 
 
 
CITY SKY/WX TMP DP RH WIND PRES REMARKS
 
PUEBLO FAIR 46 38 73 NE3 29.70F  
LA JUNTA FAIR 48 37 65 S9 29.71S  
LAMAR FAIR 41 36 82 CALM 29.70S  
SPRINGFIELD N/A 42 36 79 S9 29.73F  

 
 
 
CLICK HERE TO GO TO PREVIOUS BULLETINS.

The Nexlab CO Page Main Text Page